Waarnemingen

Advertentie
Mijn weer
Avignon, Frankrijk (7563): temperatuur & dauwpunt: 19.04.2018 12:00:00 - 25.04.2018 12:00:00 (CEST)Avignon, Frankrijk (7563): temperatuur 5cm: 19.04.2018 12:00:00 - 25.04.2018 12:00:00 (CEST)Avignon, Frankrijk (7563): windsnelheid & windstoten: 19.04.2018 12:00:00 - 25.04.2018 12:00:00 (CEST)Avignon, Frankrijk (7563): windrichting: 19.04.2018 12:00:00 - 25.04.2018 12:00:00 (CEST)Avignon, Frankrijk (7563): luchtdruk: 19.04.2018 12:00:00 - 25.04.2018 12:00:00 (CEST)Avignon, Frankrijk (7563): zicht: 19.04.2018 12:00:00 - 25.04.2018 12:00:00 (CEST)Avignon, Frankrijk (7563): neerslag: 19.04.2018 12:00:00 - 25.04.2018 12:00:00 (CEST)
Datum & Tijd tt [°C] td [°C] tt 5cm [°C] ff [km/u] ff [kn] fx [km/u] fx [kn] dd ppp [hPa] vv [km] rr [mm]
25.04.2018 12:00:00 21,7 15,1 25,5 5 3 17 9 WZW 1018,9 15 0,0
25.04.2018 11:00:00 20,3 14,2 22,5 6 3 11 6 WZW 1019,2 14 0,0
25.04.2018 10:00:00 19,0 14,0 17,9 0 0 6 3 N 1018,8 12 0,0
25.04.2018 09:00:00 16,2 13,3 12,7 3 1 5 3 ZZW 1018,9 12 0,0
25.04.2018 08:00:00 13,2 12,6 8,0 0 0 6 3 N 1018,6 10 0,0
25.04.2018 07:00:00 10,2 9,3 7,6 2 1 5 3 O 1017,9 7 0,0
25.04.2018 06:00:00 10,9 10,0 7,8 0 0 4 2 N 1017,8 10 0,0
25.04.2018 05:00:00 11,5 10,2 8,5 0 0 3 2 N 1017,3 5 0,0
25.04.2018 04:00:00 13,5 11,5 9,7 2 1 9 5 ZW 1017,1 10 0,0
25.04.2018 03:00:00 14,6 12,5 11,5 4 2 13 7 ZZO 1017,1 16 0,0
25.04.2018 02:00:00 14,7 12,9 11,7 8 5 13 7 ZO 1017,6 15 0,0
25.04.2018 01:00:00 13,9 12,3 11,8 9 5 13 7 ZZO 1018,0 11 0,0
25.04.2018 00:00:00 16,0 13,8 12,7 5 3 13 7 OZO 1017,8 17 0,0
24.04.2018 23:00:00 16,2 13,9 12,9 5 3 11 6 ZO 1017,9 15 0,0
24.04.2018 22:00:00 17,3 13,6 14,5 7 4 16 9 Z 1017,6 17 0,0
24.04.2018 21:00:00 19,9 13,6 17,8 9 5 22 12 Z 1016,8 33 0,0
24.04.2018 20:00:00 23,6 13,2 22,3 14 8 29 16 ZW 1016,2 39 0,0
24.04.2018 19:00:00 25,8 14,3 25,3 18 10 29 16 ZW 1015,9 42 0,0
24.04.2018 18:00:00 27,7 10,0 28,6 7 4 20 11 NW 1015,9 46 0,0
24.04.2018 17:00:00 27,0 10,7 29,1 11 6 27 15 NNW 1016,2 60 0,0
24.04.2018 16:00:00 26,7 7,7 29,1 18 10 29 16 NW 1016,8 36 0,0
24.04.2018 15:00:00 26,4 10,1 29,5 19 10 34 19 NNW 1017,3 25 0,0
24.04.2018 14:00:00 25,6 12,8 29,1 20 11 32 17 NW 1017,7 24 0,0
24.04.2018 13:00:00 24,4 13,6 27,8 20 11 34 18 NW 1018,4 20 0,0
24.04.2018 12:00:00 23,3 14,6 26,3 21 11 34 18 NNW 1018,5 20 0,0
24.04.2018 11:00:00 21,3 14,5 21,5 16 9 26 14 NW 1018,7 19 0,0
24.04.2018 10:00:00 19,5 14,3 18,6 16 9 24 13 NNW 1018,7 30 0,0
24.04.2018 09:00:00 17,8 13,7 14,3 17 9 29 16 NNW 1018,5 20 0,0
24.04.2018 08:00:00 14,9 13,4 9,8 6 3 14 8 N 1018,4 18 0,2
24.04.2018 07:00:00 12,9 11,5 9,4 6 3 12 6 NNW 1018,0 17 0,0
24.04.2018 06:00:00 13,8 12,0 11,6 6 3 15 8 NNW 1017,8 20 0,0
24.04.2018 05:00:00 14,1 12,8 11,3 8 4 13 7 N 1017,9 29 0,0
24.04.2018 04:00:00 14,8 13,7 10,7 8 4 13 7 WNW 1018,2 26 0,0
24.04.2018 03:00:00 14,6 12,8 11,7 6 3 23 12 NNW 1018,3 30 0,0
24.04.2018 02:00:00 16,7 13,8 14,5 16 9 26 14 NNW 1018,5 46 0,0
24.04.2018 01:00:00 17,1 13,2 15,7 10 5 22 12 NNW 1018,5 59 0,0
24.04.2018 00:00:00 17,7 14,4 15,6 13 7 27 15 N 1018,8 18 0,0
23.04.2018 23:00:00 17,2 15,0 15,6 4 2 14 8 NNW 1019,7 14 0,0
23.04.2018 22:00:00 18,2 14,9 16,2 7 4 16 9 WZW 1019,7 17 0,0
23.04.2018 21:00:00 17,9 14,8 16,3 3 2 8 4 NO 1018,3 19 0,0
23.04.2018 20:00:00 19,1 14,4 17,9 3 2 15 8 ZW 1018,3 20 0,0
23.04.2018 19:00:00 19,9 13,6 19,3 11 6 20 11 ZW 1017,9 31 0,0
23.04.2018 18:00:00 21,6 13,2 21,5 13 7 24 13 ZW 1018,2 20 0,0
23.04.2018 17:00:00 22,9 12,2 22,8 13 7 22 12 Z 1017,9 42 0,0
23.04.2018 16:00:00 23,8 11,5 24,1 8 4 12 7 Z 1018,0 46 0,0
23.04.2018 15:00:00 24,8 9,9 27,9 6 3 16 8 ZZO 1018,6 55 0,0
23.04.2018 14:00:00 24,6 11,5 28,9 5 3 16 9 Z 1019,0 48 0,0
23.04.2018 13:00:00 24,1 11,8 26,1 5 3 16 9 O 1019,3 19 0,0
23.04.2018 12:00:00 22,4 11,2 26,2 4 2 11 6 W 1019,6 20 0,0
23.04.2018 11:00:00 20,4 11,6 19,9 4 2 9 5 NNW 1020,0 18 0,0
23.04.2018 10:00:00 17,7 11,9 16,9 5 3 10 5 NW 1019,9 18 0,0
23.04.2018 09:00:00 15,6 9,3 11,4 3 1 8 5 NNO 1019,6 19 0,0
23.04.2018 08:00:00 11,5 9,4 7,8 4 2 9 5 OZO 1019,6 17 0,2
23.04.2018 07:00:00 10,6 7,5 7,0 6 3 8 4 NNO 1019,3 19 0,0
23.04.2018 06:00:00 9,9 8,7 7,1 5 3 8 4 NO 1019,2 16 0,0
23.04.2018 05:00:00 9,0 7,4 6,5 4 2 10 5 N 1019,2 17 0,0
23.04.2018 04:00:00 10,2 8,1 7,0 2 1 6 3 N 1019,5 19 0,0
23.04.2018 03:00:00 10,4 9,2 6,9 3 1 4 2 N 1019,4 15 0,0
23.04.2018 02:00:00 10,8 9,2 8,0 3 2 6 3 ONO 1019,8 17 0,0
23.04.2018 01:00:00 11,5 9,6 8,6 0 0 5 3 N 1020,1 20 0,0
23.04.2018 00:00:00 12,6 10,0 9,3 0 0 9 5 N 1019,8 31 0,0
22.04.2018 23:00:00 12,8 9,8 10,0 4 2 7 4 O 1019,7 30 0,0
22.04.2018 22:00:00 15,0 11,2 10,7 5 3 6 3 OZO 1019,2 33 0,0
22.04.2018 21:00:00 17,5 11,7 12,8 4 2 9 5 ZZO 1018,4 10 0,0
22.04.2018 20:00:00 19,9 11,4 18,4 5 3 26 14 Z 1017,7 42 0,0
22.04.2018 19:00:00 21,1 10,6 20,3 14 8 29 15 ZW 1017,5 20 0,0
22.04.2018 18:00:00 24,3 10,9 25,2 16 8 27 15 ZW 1017,1 36 0,0
22.04.2018 17:00:00 25,1 11,6 27,4 18 10 31 17 WZW 1017,0 20 0,0
22.04.2018 16:00:00 26,5 12,2 31,0 18 10 30 16 ZW 1017,0 20 0,0
22.04.2018 15:00:00 26,9 11,0 33,1 14 7 25 14 ZZW 1017,4 20 0,0
22.04.2018 14:00:00 26,4 10,5 32,6 11 6 23 12 WZW 1017,7 32 0,0
22.04.2018 13:00:00 25,1 9,8 30,7 3 2 14 8 W 1018,2 20 0,0
22.04.2018 12:00:00 23,3 11,0 29,8 3 2 10 6 WNW 1018,7 20 0,0
22.04.2018 11:00:00 21,4 11,7 21,0 3 2 9 5 WZW 1019,0 20 0,0
22.04.2018 10:00:00 19,1 11,9 16,4 2 1 10 5 NO 1018,7 19 0,0
22.04.2018 09:00:00 15,5 11,1 12,3 3 2 10 5 NW 1018,6 14 0,0
22.04.2018 08:00:00 12,7 10,9 6,2 4 2 7 4 Z 1018,5 34 0,0
22.04.2018 07:00:00 8,4 7,3 5,4 3 1 6 4 ZZW 1018,4 12 0,0
22.04.2018 06:00:00 9,3 8,4 5,6 0 0 5 3 N 1018,4 12 0,0
22.04.2018 05:00:00 9,3 7,7 6,3 3 2 6 3 OZO 1018,8 20 0,0
22.04.2018 04:00:00 10,2 8,5 7,0 3 2 6 3 ZO 1018,7 24 0,0
22.04.2018 03:00:00 10,8 9,1 7,2 0 0 4 2 N 1018,7 20 0,0
22.04.2018 02:00:00 11,7 9,4 7,6 0 0 5 3 N 1018,8 26 0,0
22.04.2018 01:00:00 12,0 9,2 8,5 0 0 4 2 N 1019,1 31 0,0
22.04.2018 00:00:00 13,3 9,4 9,7 3 2 7 4 ZO 1019,3 32 0,0
21.04.2018 23:00:00 14,1 9,1 9,7 2 1 7 4 O 1019,5 45 0,0
21.04.2018 22:00:00 15,1 9,7 10,6 2 1 4 2 ZO 1019,1 54 0,0
21.04.2018 21:00:00 20,6 8,6 13,1 2 1 10 6 ZZO 1018,4 59 0,0
21.04.2018 20:00:00 23,1 8,8 20,6 9 5 19 10 ZZW 1018,1 60 0,0
21.04.2018 19:00:00 25,7 8,7 24,7 10 6 25 14 ZW 1017,9 55 0,0
21.04.2018 18:00:00 26,9 8,8 28,7 16 9 29 15 ZW 1017,9 57 0,0
21.04.2018 17:00:00 27,6 10,3 30,4 18 10 30 16 ZW 1018,1 60 0,0
21.04.2018 16:00:00 28,1 11,6 32,8 17 9 32 17 ZZW 1018,4 60 0,0
21.04.2018 15:00:00 28,3 10,9 34,2 11 6 23 12 ZW 1018,6 20 0,0
21.04.2018 14:00:00 27,1 9,4 35,5 7 4 14 8 NW 1019,1 27 0,0
21.04.2018 13:00:00 25,7 12,9 30,0 3 2 9 5 WZW 1019,7 20 0,0
21.04.2018 12:00:00 23,4 13,3 29,0 3 2 7 4 NNO 1020,5 32 0,0
21.04.2018 11:00:00 20,9 11,8 19,2 3 2 9 5 N 1020,8 33 0,0
21.04.2018 10:00:00 18,2 10,8 16,3 0 0 6 3 N 1021,1 18 0,0
21.04.2018 09:00:00 15,6 11,2 11,0 3 2 5 3 WNW 1021,1 18 0,0
21.04.2018 08:00:00 11,7 10,6 6,0 0 0 5 3 N 1021,1 15 0,0
21.04.2018 07:00:00 8,4 7,0 5,6 0 0 4 2 N 1020,9 19 0,0
21.04.2018 06:00:00 9,2 7,3 6,1 2 1 8 4 OZO 1020,7 23 0,0
21.04.2018 05:00:00 8,8 7,2 6,5 0 0 4 2 N 1021,0 17 0,0
21.04.2018 04:00:00 10,2 8,3 - 0 0 4 2 N 1021,3 17 0,0
21.04.2018 03:00:00 11,0 8,7 7,6 3 2 5 3 O 1021,4 24 0,0
21.04.2018 02:00:00 11,1 8,3 8,2 3 2 5 3 Z 1021,8 20 0,0
21.04.2018 01:00:00 11,8 9,0 8,9 2 1 3 2 ZO 1022,1 29 0,0
21.04.2018 00:00:00 13,1 9,3 9,2 0 0 4 2 N 1022,2 38 0,0
20.04.2018 23:00:00 14,0 9,4 10,2 4 2 6 4 O 1022,3 40 0,0
20.04.2018 22:00:00 15,4 9,7 11,8 5 3 8 4 O 1022,2 43 0,0
20.04.2018 21:00:00 18,7 9,7 13,9 5 3 13 7 ZO 1021,9 20 0,0
20.04.2018 20:00:00 21,7 9,2 20,0 10 5 19 11 ZW 1021,3 58 0,0
20.04.2018 19:00:00 23,5 8,4 23,0 17 9 29 16 ZW 1021,4 48 0,0
20.04.2018 18:00:00 24,9 10,4 26,2 18 10 30 16 ZW 1021,3 39 0,0
20.04.2018 17:00:00 25,6 10,6 28,7 21 12 35 19 ZW 1021,4 20 0,0
20.04.2018 16:00:00 27,5 11,1 33,0 11 6 23 13 W 1021,5 52 0,0
20.04.2018 15:00:00 27,1 9,0 33,5 4 2 16 9 W 1022,2 18 0,0
20.04.2018 14:00:00 26,3 8,7 31,0 5 3 17 9 Z 1023,0 18 0,0
20.04.2018 13:00:00 25,5 11,3 30,4 4 2 11 6 NNW 1023,7 20 0,0
20.04.2018 12:00:00 23,6 12,3 28,3 5 3 10 5 WNW 1024,2 29 0,0
20.04.2018 11:00:00 21,3 11,6 19,6 4 2 10 5 ONO 1024,4 36 0,0
20.04.2018 10:00:00 18,0 11,3 15,7 5 3 9 5 N 1024,4 19 0,0
20.04.2018 09:00:00 14,8 10,2 10,5 5 3 9 5 N 1024,4 17 0,2
20.04.2018 08:00:00 10,9 9,7 5,5 3 1 5 3 O 1024,4 18 0,0
20.04.2018 07:00:00 7,4 6,0 4,8 3 2 6 3 ZO 1024,3 16 0,0
20.04.2018 06:00:00 7,7 6,0 5,1 0 0 6 3 N 1024,1 21 0,0
20.04.2018 05:00:00 8,5 7,1 5,5 4 2 6 3 N 1024,1 16 0,0
20.04.2018 04:00:00 8,9 7,2 5,8 0 0 2 1 N 1024,4 20 0,0
20.04.2018 03:00:00 8,9 6,5 6,6 0 0 4 2 N 1024,7 30 0,0
20.04.2018 02:00:00 10,4 7,8 6,9 0 0 2 1 N 1025,2 33 0,0
20.04.2018 01:00:00 11,1 8,0 7,5 2 1 4 2 O 1025,4 35 0,0
20.04.2018 00:00:00 12,2 7,9 8,2 3 1 5 3 OZO 1025,4 45 0,0
19.04.2018 23:00:00 12,9 8,0 9,2 5 3 7 4 O 1025,6 45 0,0
19.04.2018 22:00:00 15,0 8,0 11,0 6 3 8 4 O 1025,6 53 0,0
19.04.2018 21:00:00 16,6 7,8 12,7 6 3 17 9 Z 1025,1 58 0,0
19.04.2018 20:00:00 20,8 7,1 19,0 12 6 26 14 ZW 1024,7 59 0,0
19.04.2018 19:00:00 22,8 6,5 22,4 18 10 30 16 WZW 1024,6 24 0,0
19.04.2018 18:00:00 24,0 7,2 25,2 19 10 29 15 WZW 1024,5 30 0,0
19.04.2018 17:00:00 25,0 8,9 28,2 20 11 29 16 ZW 1024,7 31 0,0
19.04.2018 16:00:00 25,7 9,9 30,4 17 9 25 13 WZW 1024,9 20 0,0
19.04.2018 15:00:00 25,9 10,5 31,0 5 3 19 11 ZW 1025,4 41 0,0
19.04.2018 14:00:00 25,2 9,1 32,5 7 4 15 8 WZW 1026,0 28 0,0
19.04.2018 13:00:00 24,1 10,4 29,6 8 4 16 9 NNW 1026,6 55 0,0
19.04.2018 12:00:00 22,4 12,9 25,3 5 3 9 5 N 1027,1 45 0,0

tt = temperatuur
td = dauwpunt
tt 5cm = temperatuur 5cm
ff = windsnelheid
fx = windstoten
dd = windrichting
ppp = luchtdruk
vv = zicht
rr = neerslag

Weerstations in de omgeving